Location: Archemont
(49.1579°N, 1.7598°E)
Time: 12:07:46
(UTC+00:00)

Vanguard 3 - Pass Details

Date: 24 April 2024
Orbit: 509 x 3233 km, 33.3° (Epoch: 25 May)

Event Time Altitude Azimuth Distance (km) Brightness Sun altitude
Exits shadow 00:25:02 16° 143° (SE) 5,010 10.8 -27.4°
Drops below altitude 10° 00:31:48 10° 115° (ESE) 4,998 11.0 -27.2°
Sets 00:37:15 0° 96° (E) 5,492 11.5 -27.0°
